Year,Month,Day,Hour,Minute,Value (Times are PST for temperature in C)
2013,07,17,00,00,20.10
2013,07,17,00,01,20.10
2013,07,17,00,02,20.10
2013,07,17,00,03,20.00
2013,07,17,00,04,20.00
2013,07,17,00,05,20.00
2013,07,17,00,06,19.90
2013,07,17,00,07,19.90
2013,07,17,00,08,19.90
2013,07,17,00,09,19.90
2013,07,17,00,10,19.90
2013,07,17,00,11,19.90
2013,07,17,00,12,19.90
2013,07,17,00,13,19.90
2013,07,17,00,14,19.90
2013,07,17,00,15,19.90
2013,07,17,00,16,19.80
2013,07,17,00,17,19.80
2013,07,17,00,18,19.80
2013,07,17,00,19,19.80
2013,07,17,00,20,19.80
2013,07,17,00,21,19.80
2013,07,17,00,22,19.80
2013,07,17,00,23,19.70
2013,07,17,00,24,19.70
2013,07,17,00,25,19.70
2013,07,17,00,26,19.70
2013,07,17,00,27,19.70
2013,07,17,00,28,19.70
2013,07,17,00,29,19.70
2013,07,17,00,30,19.60
2013,07,17,00,31,19.60
2013,07,17,00,32,19.60
2013,07,17,00,33,19.60
2013,07,17,00,34,19.60
2013,07,17,00,35,19.60
2013,07,17,00,36,19.60
2013,07,17,00,37,19.60
2013,07,17,00,38,19.60
2013,07,17,00,39,19.60
2013,07,17,00,40,19.60
2013,07,17,00,41,19.50
2013,07,17,00,42,19.50
2013,07,17,00,43,19.50
2013,07,17,00,44,19.50
2013,07,17,00,45,19.50
2013,07,17,00,46,19.40
2013,07,17,00,47,19.50
2013,07,17,00,48,19.50
2013,07,17,00,49,19.50
2013,07,17,00,50,19.50
2013,07,17,00,51,19.50
2013,07,17,00,52,19.50
2013,07,17,00,53,19.50
2013,07,17,00,54,19.50
2013,07,17,00,55,19.50
2013,07,17,00,56,19.50
2013,07,17,00,57,19.50
2013,07,17,00,58,19.50
2013,07,17,00,59,19.50
2013,07,17,01,00,19.50
2013,07,17,01,01,19.60
2013,07,17,01,02,19.60
2013,07,17,01,03,19.60
2013,07,17,01,04,19.60
2013,07,17,01,05,19.60
2013,07,17,01,06,19.60
2013,07,17,01,07,19.60
2013,07,17,01,08,19.60
2013,07,17,01,09,19.60
2013,07,17,01,10,19.60
2013,07,17,01,11,19.60
2013,07,17,01,12,19.60
2013,07,17,01,13,19.60
2013,07,17,01,14,19.60
2013,07,17,01,15,19.60
2013,07,17,01,16,19.70
2013,07,17,01,17,19.70
2013,07,17,01,18,19.70
2013,07,17,01,19,19.70
2013,07,17,01,20,19.70
2013,07,17,01,21,19.60
2013,07,17,01,22,19.60
2013,07,17,01,23,19.60
2013,07,17,01,24,19.60
2013,07,17,01,25,19.50
2013,07,17,01,26,19.50
2013,07,17,01,27,19.50
2013,07,17,01,28,19.40
2013,07,17,01,29,19.40
2013,07,17,01,30,19.40
2013,07,17,01,31,19.40
2013,07,17,01,32,19.40
2013,07,17,01,33,19.30
2013,07,17,01,34,19.30
2013,07,17,01,35,19.30
2013,07,17,01,36,19.30
2013,07,17,01,37,19.30
2013,07,17,01,38,19.30
2013,07,17,01,39,19.30
2013,07,17,01,40,19.30
2013,07,17,01,41,19.30
2013,07,17,01,42,19.30
2013,07,17,01,43,19.30
2013,07,17,01,44,19.30
2013,07,17,01,45,19.30
2013,07,17,01,46,19.40
2013,07,17,01,47,19.40
2013,07,17,01,48,19.40
2013,07,17,01,49,19.40
2013,07,17,01,50,19.40
2013,07,17,01,51,19.40
2013,07,17,01,52,19.40
2013,07,17,01,53,19.40
2013,07,17,01,54,19.40
2013,07,17,01,55,19.40
2013,07,17,01,56,19.40
2013,07,17,01,57,19.40
2013,07,17,01,58,19.40
2013,07,17,01,59,19.50
2013,07,17,02,00,19.50
2013,07,17,02,01,19.50
2013,07,17,02,02,19.60
2013,07,17,02,03,19.60
2013,07,17,02,04,19.70
2013,07,17,02,05,19.80
2013,07,17,02,06,19.80
2013,07,17,02,07,19.80
2013,07,17,02,08,19.80
2013,07,17,02,09,19.80
2013,07,17,02,10,19.80
2013,07,17,02,11,19.90
2013,07,17,02,12,19.90
2013,07,17,02,13,19.90
2013,07,17,02,14,19.90
2013,07,17,02,15,19.90
2013,07,17,02,16,19.90
2013,07,17,02,17,19.90
2013,07,17,02,18,20.00
2013,07,17,02,19,20.00
2013,07,17,02,20,20.00
2013,07,17,02,21,20.10
2013,07,17,02,22,20.10
2013,07,17,02,23,20.10
2013,07,17,02,24,20.10
2013,07,17,02,25,20.10
2013,07,17,02,26,20.20
2013,07,17,02,27,20.20
2013,07,17,02,28,20.20
2013,07,17,02,29,20.20
2013,07,17,02,30,20.20
2013,07,17,02,31,20.20
2013,07,17,02,32,20.20
2013,07,17,02,33,20.20
2013,07,17,02,34,20.10
2013,07,17,02,35,20.10
2013,07,17,02,36,20.10
2013,07,17,02,37,20.10
2013,07,17,02,38,20.10
2013,07,17,02,39,20.10
2013,07,17,02,40,20.10
2013,07,17,02,41,20.10
2013,07,17,02,42,20.10
2013,07,17,02,43,20.10
2013,07,17,02,44,20.10
2013,07,17,02,45,20.10
2013,07,17,02,46,20.10
2013,07,17,02,47,20.00
2013,07,17,02,48,19.80
2013,07,17,02,49,19.70
2013,07,17,02,50,19.50
2013,07,17,02,51,19.40
2013,07,17,02,52,19.20
2013,07,17,02,53,19.10
2013,07,17,02,54,18.90
2013,07,17,02,55,18.80
2013,07,17,02,56,18.70
2013,07,17,02,57,18.50
2013,07,17,02,58,18.30
2013,07,17,02,59,18.10
2013,07,17,03,00,18.00
2013,07,17,03,01,17.80
2013,07,17,03,02,17.70
2013,07,17,03,03,17.50
2013,07,17,03,04,17.40
2013,07,17,03,05,17.30
2013,07,17,03,06,17.10
2013,07,17,03,07,17.00
2013,07,17,03,08,16.90
2013,07,17,03,09,16.80
2013,07,17,03,10,16.70
2013,07,17,03,11,16.70
2013,07,17,03,12,16.60
2013,07,17,03,13,16.60
2013,07,17,03,14,16.50
2013,07,17,03,15,16.50
2013,07,17,03,16,16.40
2013,07,17,03,17,16.40
2013,07,17,03,18,16.40
2013,07,17,03,19,16.40
2013,07,17,03,20,16.30
2013,07,17,03,21,16.30
2013,07,17,03,22,16.30
2013,07,17,03,23,16.20
2013,07,17,03,24,16.20
2013,07,17,03,25,16.20
2013,07,17,03,26,16.20
2013,07,17,03,27,16.20
2013,07,17,03,28,16.20
2013,07,17,03,29,16.20
2013,07,17,03,30,16.30
2013,07,17,03,31,16.30
2013,07,17,03,32,16.40
2013,07,17,03,33,16.40
2013,07,17,03,34,16.40
2013,07,17,03,35,16.50
2013,07,17,03,36,16.50
2013,07,17,03,37,16.60
2013,07,17,03,38,16.60
2013,07,17,03,39,16.60
2013,07,17,03,40,16.60
2013,07,17,03,41,16.60
2013,07,17,03,42,16.60
2013,07,17,03,43,16.60
2013,07,17,03,44,16.60
2013,07,17,03,45,16.60
2013,07,17,03,46,16.50
2013,07,17,03,47,16.50
2013,07,17,03,48,16.50
2013,07,17,03,49,16.50
2013,07,17,03,50,16.50
2013,07,17,03,51,16.40
2013,07,17,03,52,16.40
2013,07,17,03,53,16.40
2013,07,17,03,54,16.40
2013,07,17,03,55,16.40
2013,07,17,03,56,16.40
2013,07,17,03,57,16.40
2013,07,17,03,58,16.40
2013,07,17,03,59,16.30
2013,07,17,04,00,16.30
2013,07,17,04,01,16.30
2013,07,17,04,02,16.30
2013,07,17,04,03,16.30
2013,07,17,04,04,16.20
2013,07,17,04,05,16.20
2013,07,17,04,06,16.20
2013,07,17,04,07,16.20
2013,07,17,04,08,16.20
2013,07,17,04,09,16.20
2013,07,17,04,10,16.20
2013,07,17,04,11,16.20
2013,07,17,04,12,16.20
2013,07,17,04,13,16.20
2013,07,17,04,14,16.20
2013,07,17,04,15,16.20
2013,07,17,04,16,16.20
2013,07,17,04,17,16.20
2013,07,17,04,18,16.20
2013,07,17,04,19,16.20
2013,07,17,04,20,16.20
2013,07,17,04,21,16.20
2013,07,17,04,22,16.30
2013,07,17,04,23,16.30
2013,07,17,04,24,16.30
2013,07,17,04,25,16.30
2013,07,17,04,26,16.30
2013,07,17,04,27,16.30
2013,07,17,04,28,16.30
2013,07,17,04,29,16.30
2013,07,17,04,30,16.30
2013,07,17,04,31,16.30
2013,07,17,04,32,16.30
2013,07,17,04,33,16.30
2013,07,17,04,34,16.30
2013,07,17,04,35,16.30
2013,07,17,04,36,16.30
2013,07,17,04,37,16.30
2013,07,17,04,38,16.30
2013,07,17,04,39,16.40
2013,07,17,04,40,16.40
2013,07,17,04,41,16.40
2013,07,17,04,42,16.40
2013,07,17,04,43,16.40
2013,07,17,04,44,16.40
2013,07,17,04,45,16.40
2013,07,17,04,46,16.40
2013,07,17,04,47,16.40
2013,07,17,04,48,16.40
2013,07,17,04,49,16.40
2013,07,17,04,50,16.40
2013,07,17,04,51,16.40
2013,07,17,04,52,16.50
2013,07,17,04,53,16.40
2013,07,17,04,54,16.40
2013,07,17,04,55,16.50
2013,07,17,04,56,16.50
2013,07,17,04,57,16.50
2013,07,17,04,58,16.50
2013,07,17,04,59,16.50
2013,07,17,05,00,16.50
2013,07,17,05,01,16.50
2013,07,17,05,02,16.50
2013,07,17,05,03,16.50
2013,07,17,05,04,16.50
2013,07,17,05,05,16.50
2013,07,17,05,06,16.50
2013,07,17,05,07,16.50
2013,07,17,05,08,16.50
2013,07,17,05,09,16.50
2013,07,17,05,10,16.60
2013,07,17,05,11,16.60
2013,07,17,05,12,16.60
2013,07,17,05,13,16.60
2013,07,17,05,14,16.60
2013,07,17,05,15,16.70
2013,07,17,05,16,16.70
2013,07,17,05,17,16.70
2013,07,17,05,18,16.80
2013,07,17,05,19,16.80
2013,07,17,05,20,16.90
2013,07,17,05,21,16.90
2013,07,17,05,22,17.00
2013,07,17,05,23,17.00
2013,07,17,05,24,17.10
2013,07,17,05,25,17.10
2013,07,17,05,26,17.10
2013,07,17,05,27,17.20
2013,07,17,05,28,17.20
2013,07,17,05,29,17.20
2013,07,17,05,30,17.20
2013,07,17,05,31,17.30
2013,07,17,05,32,17.30
2013,07,17,05,33,17.30
2013,07,17,05,34,17.30
2013,07,17,05,35,17.30
2013,07,17,05,36,17.30
2013,07,17,05,37,17.30
2013,07,17,05,38,17.30
2013,07,17,05,39,17.40
2013,07,17,05,40,17.40
2013,07,17,05,41,17.40
2013,07,17,05,42,17.40
2013,07,17,05,43,17.40
2013,07,17,05,44,17.30
2013,07,17,05,45,17.30
2013,07,17,05,46,17.30
2013,07,17,05,47,17.30
2013,07,17,05,48,17.20
2013,07,17,05,49,17.20
2013,07,17,05,50,17.20
2013,07,17,05,51,17.20
2013,07,17,05,52,17.10
2013,07,17,05,53,17.10
2013,07,17,05,54,17.10
2013,07,17,05,55,17.10
2013,07,17,05,56,17.10
2013,07,17,05,57,17.10
2013,07,17,05,58,17.10
2013,07,17,05,59,17.10
2013,07,17,06,00,17.10
2013,07,17,06,01,17.10
2013,07,17,06,02,17.10
2013,07,17,06,03,17.10
2013,07,17,06,04,17.00
2013,07,17,06,05,17.00
2013,07,17,06,06,17.00
2013,07,17,06,07,17.00
2013,07,17,06,08,17.00
2013,07,17,06,09,17.00
2013,07,17,06,10,17.10
2013,07,17,06,11,17.10
2013,07,17,06,12,17.10
2013,07,17,06,13,17.10
2013,07,17,06,14,17.10
2013,07,17,06,15,17.10
2013,07,17,06,16,17.10
2013,07,17,06,17,17.10
2013,07,17,06,18,17.10
2013,07,17,06,19,17.10
2013,07,17,06,20,17.10
2013,07,17,06,21,17.10
2013,07,17,06,22,17.10
2013,07,17,06,23,17.10
2013,07,17,06,24,17.10
2013,07,17,06,25,17.10
2013,07,17,06,26,17.10
2013,07,17,06,27,17.10
2013,07,17,06,28,17.10
2013,07,17,06,29,17.10
2013,07,17,06,30,17.10
2013,07,17,06,31,17.10
2013,07,17,06,32,17.10
2013,07,17,06,33,17.10
2013,07,17,06,34,17.20
2013,07,17,06,35,17.20
2013,07,17,06,36,17.20
2013,07,17,06,37,17.20
2013,07,17,06,38,17.30
2013,07,17,06,39,17.30
2013,07,17,06,40,17.30
2013,07,17,06,41,17.30
2013,07,17,06,42,17.30
2013,07,17,06,43,17.30
2013,07,17,06,44,17.40
2013,07,17,06,45,17.40
2013,07,17,06,46,17.40
2013,07,17,06,47,17.40
2013,07,17,06,48,17.40
2013,07,17,06,49,17.40
2013,07,17,06,50,17.40
2013,07,17,06,51,17.30
2013,07,17,06,52,17.30
2013,07,17,06,53,17.30
2013,07,17,06,54,17.30
2013,07,17,06,55,17.30
2013,07,17,06,56,17.30
2013,07,17,06,57,17.30
2013,07,17,06,58,17.30
2013,07,17,06,59,17.30
2013,07,17,07,00,17.30
2013,07,17,07,01,17.30
2013,07,17,07,02,17.30
2013,07,17,07,03,17.30
2013,07,17,07,04,17.30
2013,07,17,07,05,17.40
2013,07,17,07,06,17.40
2013,07,17,07,07,17.40
2013,07,17,07,08,17.40
2013,07,17,07,09,17.50
2013,07,17,07,10,17.50
2013,07,17,07,11,17.50
2013,07,17,07,12,17.50
2013,07,17,07,13,17.50
2013,07,17,07,14,17.40
2013,07,17,07,15,17.40
2013,07,17,07,16,17.30
2013,07,17,07,17,17.20
2013,07,17,07,18,17.20
2013,07,17,07,19,17.10
2013,07,17,07,20,17.00
2013,07,17,07,21,16.90
2013,07,17,07,22,16.90
2013,07,17,07,23,16.80
2013,07,17,07,24,16.80
2013,07,17,07,25,16.80
2013,07,17,07,26,16.80
2013,07,17,07,27,16.80
2013,07,17,07,28,16.80
2013,07,17,07,29,16.80
2013,07,17,07,30,16.80
2013,07,17,07,31,16.90
2013,07,17,07,32,16.90
2013,07,17,07,33,17.00
2013,07,17,07,34,17.10
2013,07,17,07,35,17.20
2013,07,17,07,36,17.30
2013,07,17,07,37,17.40
2013,07,17,07,38,17.50
2013,07,17,07,39,17.50
2013,07,17,07,40,17.60
2013,07,17,07,41,17.70
2013,07,17,07,42,17.80
2013,07,17,07,43,17.90
2013,07,17,07,44,18.00
2013,07,17,07,45,18.10
2013,07,17,07,46,18.20
2013,07,17,07,47,18.30
2013,07,17,07,48,18.50
2013,07,17,07,49,18.60
2013,07,17,07,50,18.70
2013,07,17,07,51,18.80
2013,07,17,07,52,18.90
2013,07,17,07,53,18.90
2013,07,17,07,54,19.00
2013,07,17,07,55,19.00
2013,07,17,07,56,19.00
2013,07,17,07,57,19.10
2013,07,17,07,58,19.10
2013,07,17,07,59,19.10
2013,07,17,08,00,19.10
2013,07,17,08,01,19.10
2013,07,17,08,02,19.20
2013,07,17,08,03,19.30
2013,07,17,08,04,19.30
2013,07,17,08,05,19.40
2013,07,17,08,06,19.40
2013,07,17,08,07,19.40
2013,07,17,08,08,19.50
2013,07,17,08,09,19.50
2013,07,17,08,10,19.50
2013,07,17,08,11,19.60
2013,07,17,08,12,19.60
2013,07,17,08,13,19.60
2013,07,17,08,14,19.70
2013,07,17,08,15,19.70
2013,07,17,08,16,19.80
2013,07,17,08,17,19.80
2013,07,17,08,18,19.80
2013,07,17,08,19,19.90
2013,07,17,08,20,20.00
2013,07,17,08,21,20.00
2013,07,17,08,22,20.10
2013,07,17,08,23,20.20
2013,07,17,08,24,20.30
2013,07,17,08,25,20.40
2013,07,17,08,26,20.50
2013,07,17,08,27,20.60
2013,07,17,08,28,20.60
2013,07,17,08,29,20.70
2013,07,17,08,30,20.70
2013,07,17,08,31,20.70
2013,07,17,08,32,20.70
2013,07,17,08,33,20.70
2013,07,17,08,34,20.70
2013,07,17,08,35,20.70
2013,07,17,08,36,20.70
2013,07,17,08,37,20.80
2013,07,17,08,38,20.80
2013,07,17,08,39,20.80
2013,07,17,08,40,20.80
2013,07,17,08,41,20.90
2013,07,17,08,42,20.90
2013,07,17,08,43,21.10
2013,07,17,08,44,21.20
2013,07,17,08,45,21.20
2013,07,17,08,46,21.30
2013,07,17,08,47,21.30
2013,07,17,08,48,21.30
2013,07,17,08,49,21.30
2013,07,17,08,50,21.30
2013,07,17,08,51,21.30
2013,07,17,08,52,21.10
2013,07,17,08,53,21.00
2013,07,17,08,54,21.00
2013,07,17,08,55,20.90
2013,07,17,08,56,20.90
2013,07,17,08,57,20.90
2013,07,17,08,58,21.00
2013,07,17,08,59,21.10
2013,07,17,09,00,21.10
2013,07,17,09,01,21.20
2013,07,17,09,02,21.30
2013,07,17,09,03,21.30
2013,07,17,09,04,21.30
2013,07,17,09,05,21.30
2013,07,17,09,06,21.40
2013,07,17,09,07,21.30
2013,07,17,09,08,21.30
2013,07,17,09,09,21.30
2013,07,17,09,10,21.30
2013,07,17,09,11,21.30
2013,07,17,09,12,21.30
2013,07,17,09,13,21.30
2013,07,17,09,14,21.30
2013,07,17,09,15,21.30
2013,07,17,09,16,21.30
2013,07,17,09,17,21.20
2013,07,17,09,18,21.20
2013,07,17,09,19,21.10
2013,07,17,09,20,21.10
2013,07,17,09,21,21.00
2013,07,17,09,22,20.90
2013,07,17,09,23,20.80
2013,07,17,09,24,20.70
2013,07,17,09,25,20.60
2013,07,17,09,26,20.50
2013,07,17,09,27,20.40
2013,07,17,09,28,20.30
2013,07,17,09,29,20.30
2013,07,17,09,30,20.30
2013,07,17,09,31,20.30
2013,07,17,09,32,20.30
2013,07,17,09,33,20.40
2013,07,17,09,34,20.40
2013,07,17,09,35,20.40
2013,07,17,09,36,20.40
2013,07,17,09,37,20.50
2013,07,17,09,38,20.50
2013,07,17,09,39,20.60
2013,07,17,09,40,20.60
2013,07,17,09,41,20.60
2013,07,17,09,42,20.70
2013,07,17,09,43,20.70
2013,07,17,09,44,20.70
2013,07,17,09,45,20.80
2013,07,17,09,46,20.80
2013,07,17,09,47,20.90
2013,07,17,09,48,20.90
2013,07,17,09,49,20.90
2013,07,17,09,50,21.00
2013,07,17,09,51,21.00
2013,07,17,09,52,21.10
2013,07,17,09,53,21.20
2013,07,17,09,54,21.30
2013,07,17,09,55,21.40
2013,07,17,09,56,21.50
2013,07,17,09,57,21.60
2013,07,17,09,58,21.60
2013,07,17,09,59,21.60
2013,07,17,10,00,21.60
2013,07,17,10,01,21.50
2013,07,17,10,02,21.50
2013,07,17,10,03,21.40
2013,07,17,10,04,21.40
2013,07,17,10,05,21.40
2013,07,17,10,06,21.40
2013,07,17,10,07,21.40
2013,07,17,10,08,21.40
2013,07,17,10,09,21.40
2013,07,17,10,10,21.50
2013,07,17,10,11,21.60
2013,07,17,10,12,21.60
2013,07,17,10,13,21.70
2013,07,17,10,14,21.70
2013,07,17,10,15,21.70
2013,07,17,10,16,21.70
2013,07,17,10,17,21.70
2013,07,17,10,18,21.80
2013,07,17,10,19,21.70
2013,07,17,10,20,21.70
2013,07,17,10,21,21.50
2013,07,17,10,22,21.40
2013,07,17,10,23,21.30
2013,07,17,10,24,21.20
2013,07,17,10,25,21.10
2013,07,17,10,26,21.00
2013,07,17,10,27,20.90
2013,07,17,10,28,20.80
2013,07,17,10,29,20.80
2013,07,17,10,30,20.80
2013,07,17,10,31,20.90
2013,07,17,10,32,20.90
2013,07,17,10,33,21.00
2013,07,17,10,34,20.90
2013,07,17,10,35,20.90
2013,07,17,10,36,20.80
2013,07,17,10,37,20.80
2013,07,17,10,38,20.80
2013,07,17,10,39,20.80
2013,07,17,10,40,20.80
2013,07,17,10,41,20.80
2013,07,17,10,42,20.90
2013,07,17,10,43,20.90
2013,07,17,10,44,20.90
2013,07,17,10,45,21.00
2013,07,17,10,46,21.10
2013,07,17,10,47,21.10
2013,07,17,10,48,21.20
2013,07,17,10,49,21.20
2013,07,17,10,50,21.30
2013,07,17,10,51,21.30
2013,07,17,10,52,21.30
2013,07,17,10,53,21.40
2013,07,17,10,54,21.40
2013,07,17,10,55,21.40
2013,07,17,10,56,21.40
2013,07,17,10,57,21.40
2013,07,17,10,58,21.50
2013,07,17,10,59,21.50
2013,07,17,11,00,21.40
2013,07,17,11,01,21.40
2013,07,17,11,02,21.50
2013,07,17,11,03,21.50
2013,07,17,11,04,21.60
2013,07,17,11,05,21.70
2013,07,17,11,06,21.80
2013,07,17,11,07,21.80
2013,07,17,11,08,21.80
2013,07,17,11,09,21.80
2013,07,17,11,10,21.80
2013,07,17,11,11,21.70
2013,07,17,11,12,21.60
2013,07,17,11,13,21.40
2013,07,17,11,14,21.30
2013,07,17,11,15,21.20
2013,07,17,11,16,21.10
2013,07,17,11,17,21.10
2013,07,17,11,18,21.10
2013,07,17,11,19,21.10
2013,07,17,11,20,21.20
2013,07,17,11,21,21.30
2013,07,17,11,22,21.40
2013,07,17,11,23,21.50
2013,07,17,11,24,21.60
2013,07,17,11,25,21.70
2013,07,17,11,26,21.80
2013,07,17,11,27,21.90
2013,07,17,11,28,21.90
2013,07,17,11,29,21.90
2013,07,17,11,30,21.90
2013,07,17,11,31,21.90
2013,07,17,11,32,21.90
2013,07,17,11,33,21.90
2013,07,17,11,34,21.80
2013,07,17,11,35,21.80
2013,07,17,11,36,21.70
2013,07,17,11,37,21.70
2013,07,17,11,38,21.60
2013,07,17,11,39,21.50
2013,07,17,11,40,21.50
2013,07,17,11,41,21.50
2013,07,17,11,42,21.60
2013,07,17,11,43,21.70
2013,07,17,11,44,21.80
2013,07,17,11,45,21.90
2013,07,17,11,46,22.00
2013,07,17,11,47,22.00
2013,07,17,11,48,21.90
2013,07,17,11,49,22.00
2013,07,17,11,50,22.00
2013,07,17,11,51,22.00
2013,07,17,11,52,22.00
2013,07,17,11,53,21.90
2013,07,17,11,54,21.90
2013,07,17,11,55,22.00
2013,07,17,11,56,22.10
2013,07,17,11,57,22.20
2013,07,17,11,58,22.10
2013,07,17,11,59,22.10
2013,07,17,12,00,22.10
2013,07,17,12,01,22.10
2013,07,17,12,02,22.20
2013,07,17,12,03,22.20
2013,07,17,12,04,22.20
2013,07,17,12,05,22.20
2013,07,17,12,06,22.20
2013,07,17,12,07,22.20
2013,07,17,12,08,22.20
2013,07,17,12,09,22.30
2013,07,17,12,10,22.30
2013,07,17,12,11,22.20
2013,07,17,12,12,22.10
2013,07,17,12,13,22.00
2013,07,17,12,14,21.90
2013,07,17,12,15,21.80
2013,07,17,12,16,21.70
2013,07,17,12,17,21.70
2013,07,17,12,18,21.80
2013,07,17,12,19,21.80
2013,07,17,12,20,21.90
2013,07,17,12,21,21.90
2013,07,17,12,22,21.90
2013,07,17,12,23,21.80
2013,07,17,12,24,21.80
2013,07,17,12,25,21.80
2013,07,17,12,26,21.80
2013,07,17,12,27,21.80
2013,07,17,12,28,21.80
2013,07,17,12,29,21.80
2013,07,17,12,30,21.80
2013,07,17,12,31,21.80
2013,07,17,12,32,21.70
2013,07,17,12,33,21.70
2013,07,17,12,34,21.70
2013,07,17,12,35,21.70
2013,07,17,12,36,21.70
2013,07,17,12,37,21.70
2013,07,17,12,38,21.60
2013,07,17,12,39,21.50
2013,07,17,12,40,21.30
2013,07,17,12,41,21.00
2013,07,17,12,42,20.80
2013,07,17,12,43,20.60
2013,07,17,12,44,20.40
2013,07,17,12,45,20.30
2013,07,17,12,46,20.30
2013,07,17,12,47,20.30
2013,07,17,12,48,20.40
2013,07,17,12,49,20.40
2013,07,17,12,50,20.50
2013,07,17,12,51,20.60
2013,07,17,12,52,20.60
2013,07,17,12,53,20.70
2013,07,17,12,54,20.70
2013,07,17,12,55,20.70
2013,07,17,12,56,20.70
2013,07,17,12,57,20.70
2013,07,17,12,58,20.70
2013,07,17,12,59,20.80
2013,07,17,13,00,20.80
2013,07,17,13,01,20.80
2013,07,17,13,02,20.60
2013,07,17,13,03,20.60
2013,07,17,13,04,20.60
2013,07,17,13,05,20.60
2013,07,17,13,06,20.60
2013,07,17,13,07,20.50
2013,07,17,13,08,20.60
2013,07,17,13,09,20.60
2013,07,17,13,10,20.80
2013,07,17,13,11,21.00
2013,07,17,13,12,21.20
2013,07,17,13,13,21.30
2013,07,17,13,14,21.40
2013,07,17,13,15,21.40
2013,07,17,13,16,21.40
2013,07,17,13,17,21.30
2013,07,17,13,18,21.40
2013,07,17,13,19,21.40
2013,07,17,13,20,21.50
2013,07,17,13,21,21.50
2013,07,17,13,22,21.60
2013,07,17,13,23,21.60
2013,07,17,13,24,21.60
2013,07,17,13,25,21.60
2013,07,17,13,26,21.60
2013,07,17,13,27,21.60
2013,07,17,13,28,21.60
2013,07,17,13,29,21.60
2013,07,17,13,30,21.60
2013,07,17,13,31,21.60
2013,07,17,13,32,21.50
2013,07,17,13,33,21.50
2013,07,17,13,34,21.40
2013,07,17,13,35,21.50
2013,07,17,13,36,21.50
2013,07,17,13,37,21.50
2013,07,17,13,38,21.40
2013,07,17,13,39,21.40
2013,07,17,13,40,21.30
2013,07,17,13,41,21.30
2013,07,17,13,42,21.40
2013,07,17,13,43,21.50
2013,07,17,13,44,21.50
2013,07,17,13,45,21.50
2013,07,17,13,46,21.50
2013,07,17,13,47,21.50
2013,07,17,13,48,21.50
2013,07,17,13,49,21.50
2013,07,17,13,50,21.50
2013,07,17,13,51,21.50
2013,07,17,13,52,21.60
2013,07,17,13,53,21.60
2013,07,17,13,54,21.60
2013,07,17,13,55,21.70
2013,07,17,13,56,21.80
2013,07,17,13,57,21.70
2013,07,17,13,58,21.70
2013,07,17,13,59,21.60
2013,07,17,14,00,21.70
2013,07,17,14,01,21.70
2013,07,17,14,02,21.70
2013,07,17,14,03,21.70
2013,07,17,14,04,21.80
2013,07,17,14,05,21.80
2013,07,17,14,06,21.80
2013,07,17,14,07,21.80
2013,07,17,14,08,21.80
2013,07,17,14,09,21.80
2013,07,17,14,10,21.70
2013,07,17,14,11,21.70
2013,07,17,14,12,21.60
2013,07,17,14,13,21.60
2013,07,17,14,14,21.60
2013,07,17,14,15,21.70
2013,07,17,14,16,21.90
2013,07,17,14,17,22.00
2013,07,17,14,18,22.10
2013,07,17,14,19,22.20
2013,07,17,14,20,22.10
2013,07,17,14,21,22.10
2013,07,17,14,22,22.10
2013,07,17,14,23,22.10
2013,07,17,14,24,22.10
2013,07,17,14,25,22.00
2013,07,17,14,26,21.90
2013,07,17,14,27,21.80
2013,07,17,14,28,21.70
2013,07,17,14,29,21.70
2013,07,17,14,30,21.60
2013,07,17,14,31,21.60
2013,07,17,14,32,21.60
2013,07,17,14,33,21.60
2013,07,17,14,34,21.60
2013,07,17,14,35,21.60
2013,07,17,14,36,21.60
2013,07,17,14,37,21.50
2013,07,17,14,38,21.60
2013,07,17,14,39,21.50
2013,07,17,14,40,21.60
2013,07,17,14,41,21.70
2013,07,17,14,42,21.70
2013,07,17,14,43,21.70
2013,07,17,14,44,21.70
2013,07,17,14,45,21.70
2013,07,17,14,46,21.70
2013,07,17,14,47,21.70
2013,07,17,14,48,21.60
2013,07,17,14,49,21.70
2013,07,17,14,50,21.70
2013,07,17,14,51,21.70
2013,07,17,14,52,21.70
2013,07,17,14,53,21.70
2013,07,17,14,54,21.70
2013,07,17,14,55,21.70
2013,07,17,14,56,21.70
2013,07,17,14,57,21.70
2013,07,17,14,58,21.80
2013,07,17,14,59,21.80
2013,07,17,15,00,21.80
2013,07,17,15,01,21.80
2013,07,17,15,02,21.90
2013,07,17,15,03,21.90
2013,07,17,15,04,21.90
2013,07,17,15,05,21.90
2013,07,17,15,06,21.90
2013,07,17,15,07,21.90
2013,07,17,15,08,21.90
2013,07,17,15,09,22.00
2013,07,17,15,10,22.10
2013,07,17,15,11,22.20
2013,07,17,15,12,22.30
2013,07,17,15,13,22.30
2013,07,17,15,14,22.20
2013,07,17,15,15,22.20
2013,07,17,15,16,22.10
2013,07,17,15,17,22.10
2013,07,17,15,18,22.20
2013,07,17,15,19,22.20
2013,07,17,15,20,22.10
2013,07,17,15,21,22.10
2013,07,17,15,22,22.10
2013,07,17,15,23,22.00
2013,07,17,15,24,21.90
2013,07,17,15,25,21.90
2013,07,17,15,26,21.80
2013,07,17,15,27,21.90
2013,07,17,15,28,21.90
2013,07,17,15,29,22.00
2013,07,17,15,30,22.20
2013,07,17,15,31,22.20
2013,07,17,15,32,22.20
2013,07,17,15,33,22.10
2013,07,17,15,34,22.00
2013,07,17,15,35,21.90
2013,07,17,15,36,21.80
2013,07,17,15,37,21.80
2013,07,17,15,38,21.80
2013,07,17,15,39,21.80
2013,07,17,15,40,21.90
2013,07,17,15,41,22.00
2013,07,17,15,42,22.10
2013,07,17,15,43,22.20
2013,07,17,15,44,22.30
2013,07,17,15,45,22.30
2013,07,17,15,46,22.30
2013,07,17,15,47,22.30
2013,07,17,15,48,22.30
2013,07,17,15,49,22.30
2013,07,17,15,50,22.30
2013,07,17,15,51,22.40
2013,07,17,15,52,22.40
2013,07,17,15,53,22.40
2013,07,17,15,54,22.50
2013,07,17,15,55,22.60
2013,07,17,15,56,22.60
2013,07,17,15,57,22.60
2013,07,17,15,58,22.60
2013,07,17,15,59,22.50
2013,07,17,16,00,22.50
2013,07,17,16,01,22.40
2013,07,17,16,02,22.30
2013,07,17,16,03,22.30
2013,07,17,16,04,22.30
2013,07,17,16,05,22.30
2013,07,17,16,06,22.40
2013,07,17,16,07,22.50
2013,07,17,16,08,22.60
2013,07,17,16,09,22.60
2013,07,17,16,10,22.60
2013,07,17,16,11,22.60
2013,07,17,16,12,22.60
2013,07,17,16,13,22.50
2013,07,17,16,14,22.60
2013,07,17,16,15,22.60
2013,07,17,16,16,22.70
2013,07,17,16,17,22.70
2013,07,17,16,18,22.70
2013,07,17,16,19,22.70
2013,07,17,16,20,22.80
2013,07,17,16,21,22.80
2013,07,17,16,22,22.80
2013,07,17,16,23,22.80
2013,07,17,16,24,22.80
2013,07,17,16,25,22.70
2013,07,17,16,26,22.60
2013,07,17,16,27,22.50
2013,07,17,16,28,22.50
2013,07,17,16,29,22.50
2013,07,17,16,30,22.40
2013,07,17,16,31,22.50
2013,07,17,16,32,22.50
2013,07,17,16,33,22.50
2013,07,17,16,34,22.60
2013,07,17,16,35,22.50
2013,07,17,16,36,22.50
2013,07,17,16,37,22.40
2013,07,17,16,38,22.40
2013,07,17,16,39,22.40
2013,07,17,16,40,22.50
2013,07,17,16,41,22.60
2013,07,17,16,42,22.70
2013,07,17,16,43,22.70
2013,07,17,16,44,22.70
2013,07,17,16,45,22.60
2013,07,17,16,46,22.50
2013,07,17,16,47,22.50
2013,07,17,16,48,22.50
2013,07,17,16,49,22.50
2013,07,17,16,50,22.60
2013,07,17,16,51,22.60
2013,07,17,16,52,22.60
2013,07,17,16,53,22.60
2013,07,17,16,54,22.60
2013,07,17,16,55,22.70
2013,07,17,16,56,22.70
2013,07,17,16,57,22.80
2013,07,17,16,58,22.80
2013,07,17,16,59,22.90
2013,07,17,17,00,22.90
2013,07,17,17,01,23.00
2013,07,17,17,02,23.10
2013,07,17,17,03,23.10
2013,07,17,17,04,23.00
2013,07,17,17,05,23.00
2013,07,17,17,06,22.90
2013,07,17,17,07,22.90
2013,07,17,17,08,22.80
2013,07,17,17,09,22.70
2013,07,17,17,10,22.60
2013,07,17,17,11,22.60
2013,07,17,17,12,22.50
2013,07,17,17,13,22.50
2013,07,17,17,14,22.60
2013,07,17,17,15,22.60
2013,07,17,17,16,22.60
2013,07,17,17,17,22.70
2013,07,17,17,18,22.70
2013,07,17,17,19,22.70